Time,TemperatureF,DewpointF,PressureIn,WindDirection,WindDirectionDegrees,WindSpeedMPH,WindSpeedGustMPH,Humidity,HourlyPrecipIn,Conditions,Clouds,dailyrainin,SoftwareType,DateUTC
2014-04-21 00:01:00,47.3,42.4,-100.00,NE,45,0.0,0.0,83,0.00,,,0.00,meteohub,2014-04-21 04:01:00,
2014-04-21 00:02:00,47.3,42.4,-100.00,NE,45,0.0,0.0,83,0.00,,,0.00,meteohub,2014-04-21 04:02:00,
2014-04-21 00:07:00,47.1,42.3,-100.00,NE,45,0.0,0.0,83,0.00,,,0.00,meteohub,2014-04-21 04:07:00,
2014-04-21 00:12:00,46.9,42.1,-100.00,NE,45,0.0,0.0,83,0.00,,,0.00,meteohub,2014-04-21 04:12:00,
2014-04-21 00:17:00,46.8,41.9,-100.00,NE,45,0.0,0.0,83,0.00,,,0.00,meteohub,2014-04-21 04:17:00,
2014-04-21 00:22:00,46.8,42.3,-100.00,NE,45,0.0,0.0,84,0.00,,,0.00,meteohub,2014-04-21 04:22:00,
2014-04-21 00:27:00,46.6,42.1,-100.00,NE,45,0.0,0.0,84,0.00,,,0.00,meteohub,2014-04-21 04:27:00,
2014-04-21 00:32:00,46.6,42.1,-100.00,NE,45,0.0,0.0,84,0.00,,,0.00,meteohub,2014-04-21 04:32:00,
2014-04-21 00:37:00,46.6,42.1,-100.00,NE,45,0.0,0.0,84,0.00,,,0.00,meteohub,2014-04-21 04:37:00,
2014-04-21 00:42:00,46.4,41.9,-100.00,NE,45,0.0,0.0,84,0.00,,,0.00,meteohub,2014-04-21 04:42:00,
2014-04-21 00:47:00,46.2,41.9,-100.00,NE,45,0.0,0.0,85,0.00,,,0.00,meteohub,2014-04-21 04:47:00,
2014-04-21 00:52:00,46.2,41.9,-100.00,NE,45,0.0,0.0,85,0.00,,,0.00,meteohub,2014-04-21 04:52:00,
2014-04-21 00:57:00,46.0,41.7,-100.00,NE,45,0.0,0.0,85,0.00,,,0.00,meteohub,2014-04-21 04:57:00,
2014-04-21 01:02:00,46.0,41.7,-100.00,NE,45,0.0,0.0,85,0.00,,,0.00,meteohub,2014-04-21 05:02:00,
2014-04-21 01:07:00,45.9,41.5,-100.00,NE,45,0.0,0.0,85,0.00,,,0.00,meteohub,2014-04-21 05:07:00,
2014-04-21 01:12:00,45.9,41.9,-100.00,NE,45,0.0,0.0,86,0.00,,,0.00,meteohub,2014-04-21 05:12:00,
2014-04-21 01:17:00,46.0,42.1,-100.00,NE,45,0.0,0.0,86,0.00,,,0.00,meteohub,2014-04-21 05:17:00,
2014-04-21 01:22:00,46.0,42.1,-100.00,NE,45,0.0,0.0,86,0.00,,,0.00,meteohub,2014-04-21 05:22:00,
2014-04-21 01:27:00,46.0,42.1,-100.00,NE,45,0.0,0.0,86,0.00,,,0.00,meteohub,2014-04-21 05:27:00,
2014-04-21 01:32:00,46.0,42.1,-100.00,NE,45,0.0,0.0,86,0.00,,,0.00,meteohub,2014-04-21 05:32:00,
2014-04-21 01:37:00,45.9,41.9,-100.00,NE,45,0.0,0.0,86,0.00,,,0.00,meteohub,2014-04-21 05:37:00,
2014-04-21 01:42:00,45.9,41.9,-100.00,NE,45,0.0,0.0,86,0.00,,,0.00,meteohub,2014-04-21 05:42:00,
2014-04-21 01:47:00,45.7,41.7,-100.00,NE,45,0.0,0.0,86,0.00,,,0.00,meteohub,2014-04-21 05:47:00,
2014-04-21 01:52:00,45.7,41.7,-100.00,NE,45,0.0,0.0,86,0.00,,,0.00,meteohub,2014-04-21 05:52:00,
2014-04-21 01:57:00,45.1,41.2,-100.00,NE,45,0.0,0.0,86,0.00,,,0.00,meteohub,2014-04-21 05:57:00,
2014-04-21 02:02:00,45.5,41.5,-100.00,NE,45,0.0,0.0,86,0.00,,,0.00,meteohub,2014-04-21 06:02:00,